Hourly Data Report for October 17, 2015

All times are specified in Local Standard Time (LST). Add 1 hour to adjust for Daylight Saving Time where and when it is observed.

HALL BEACH A
NUNAVUT

68°46'33.000" N
81°14'33.000" W
9.10 m
2402354
71293
YUX

Download Data

Hourly Data (October 2015)
Hourly Data Report for October 17, 2015
Temp Definition
°C
Dew Point Temp Definition
°C
Rel Hum Definition
%
Wind Dir Definition
10's deg

Wind Spd Definition
km/h
Visibility Definition
km
Stn Press Definition
kPa
Hmdx Definition


Wind Chill Definition


Weather Definition


TIME
00:00 Legend Double Dagger -3.1 -4.5 90 33 34 11.3 100.60   -11 Snow
01:00 Legend Double Dagger -3.3 -4.9 89 32 37 12.9 100.61   -12 Snow
02:00 Legend Double Dagger -3.5 -5.1 89 33 37 4.8 100.63   -12 Snow
03:00 Legend Double Dagger -3.7 -5.7 86 32 35 9.7 100.66   -12 Fog
04:00 Legend Double Dagger -4.0 -6.0 86 31 22 16.1 100.66   -11 LegendNANA
05:00 Legend Double Dagger -4.1 -5.4 91 31 30 9.7 100.68   -12 Snow
06:00 Legend Double Dagger -3.9 -6.1 85 31 26 16.1 100.67   -11 LegendNANA
07:00 Legend Double Dagger -4.0 -5.7 88 31 26 16.1 100.66   -11 LegendNANA
08:00 Legend Double Dagger -5.6 -8.0 84 33 34 16.1 100.65   -14 LegendNANA
09:00 Legend Double Dagger -5.8 -7.3 89 31 26 16.1 100.64   -14 Snow
10:00 Legend Double Dagger -4.9 -6.6 88 33 34 8.1 100.62   -13 Snow
11:00 Legend Double Dagger -4.8 -6.8 86 31 32 16.1 100.63   -13 Snow
12:00 Legend Double Dagger -4.8 -6.8 86 32 32 14.5 100.64   -13 Snow
13:00 Legend Double Dagger -4.8 -6.9 85 30 28 16.1 100.66   -12 Snow
14:00 Legend Double Dagger -5.0 -6.3 91 31 35 3.6 100.67   -14 Snow
15:00 Legend Double Dagger -4.3 -6.3 86 34 41 6.4 100.68   -13 Snow
16:00 Legend Double Dagger -4.4 -7.1 82 35 37 9.7 100.72   -13 Snow
17:00 Legend Double Dagger -4.7 -6.7 86 34 39 3.6 100.74   -14 Snow
18:00 Legend Double Dagger -4.6 -7.0 83 34 41 4.8 100.76   -14 Snow
19:00 Legend Double Dagger -4.0 -6.2 85 34 37 14.5 100.77   -12 Snow
20:00 Legend Double Dagger -4.3 -5.5 91 33 30 16.1 100.79   -12 Snow
21:00 Legend Double Dagger -5.3 -6.7 90 32 28 16.1 100.77   -13 LegendNANA
22:00 Legend Double Dagger -6.8 -8.3 89 31 24 16.1 100.78   -14 LegendNANA
23:00 Legend Double Dagger -6.4 -7.6 91 30 22 16.1 100.78   -14 LegendNANA

Notes on Data Quality.

Legend

  • E = Estimated
  • M = Missing
  • NA = Not Available
  • ‡ = Partner data that is not subject to review by the National Climate Archives
Date modified: